Torna al catalogo

BREEZE-M DEB

TANK

AttivoHEO
NORAD 44309·DEBRIS·🇷🇺 Russia

Lanciato May 30, 2019 da Baikonur Cosmodrome

Loading…

Prossimi Passaggi (prossime 24 ore)

TLE

AggiornatoSource: Space-Track

Epoca: Sep 14, 2026, 09:51 UTC

1 44309U 19031C   26257.41058473  .00002776  00000-0  65778-3 0  9996
2 44309  49.3974 227.3649 5544278  36.1970 350.9192  4.72392193122343

Traccia BREEZE-M DEB in tempo reale con AllMySat

Download on the App Store